Deering, AK

12:05 PM AKDT on March 30, 2017 (GMT -0800)
Deering (New)

Weather History for PADE - October, 2012

Change the Weather History Date:

Wednesday, October 24, 2012

  Actual Average (PAOT) Record (PAOT)
Temperature  
Mean Temperature 19 °F -  
Max Temperature 28 °F 22 °F 48 °F (1941)
Min Temperature 10 °F 13 °F -11 °F (1970)
Degree Days  
Heating Degree Days 46    
Moisture  
Dew Point 15 °F    
Average Humidity 82    
Maximum Humidity 100    
Minimum Humidity 58    
Precipitation  
Precipitation 0.00 in - - ()
Sea Level Pressure  
Sea Level Pressure 30.69 in    
Wind  
Wind Speed 3 mph (ESE)    
Max Wind Speed 13 mph    
Max Gust Speed -    
Visibility 8 miles    
Events Fog    
Averages and records for this station are not official NWS values.
T = Trace of Precipitation, MM = Missing Value Source: NWS Daily Summary

Daily Weather History Graph

Daily Weather History Graph

Search for Another Location

Airport or City:

Trip Planner

Search our weather history database for the weather conditions in past years. The results will help you decide how hot, cold, wet, or windy it might be!

Date:

Astronomy

Oct. 24, 2012 Rise Set
Actual Time 10:21 AM AKDT 6:47 PM AKDT
Civil Twilight 9:25 AM AKDT 7:43 PM AKDT
Nautical Twilight 8:25 AM AKDT 8:43 PM AKDT
Astronomical Twilight 7:25 AM AKDT 9:42 PM AKDT
Moon 5:42 PM AKDT (10/24) 3:40 AM AKDT (10/24)
Length of Visible Light 10h 17m
Length of Day
8h 26m
Waxing Gibbous, 77% of the Moon is Illuminated
Oct 24
Waxing Gibbous
Oct 29
Full
Nov 6
Last Quarter
Nov 13
New
Nov 20
First Quarter

Hourly Weather History & Observations

Time (AKDT) Temp. Windchill Dew Point Humidity Pressure Visibility Wind Dir Wind Speed Gust Speed Precip Events Conditions
12:14 AM 21.2 °F - 19.4 °F 93% 30.70 in 1.2 mi Calm Calm - N/A   Overcast
12:22 AM 21.2 °F - 19.4 °F 93% 30.70 in 0.5 mi Calm Calm - N/A Fog Light Freezing Fog
12:53 AM 19.0 °F 12.3 °F 16.0 °F 88% 30.71 in 0.2 mi SSW 4.6 mph - N/A Fog Light Freezing Fog
1:53 AM 15.1 °F 9.4 °F 12.0 °F 88% 30.71 in 0.8 mi SSW 3.5 mph - N/A   Mist
2:00 AM 15.8 °F - 12.2 °F 86% 30.71 in 1.5 mi Calm Calm - N/A   Mostly Cloudy
2:03 AM 14.0 °F - 10.4 °F 86% 30.71 in 3.0 mi Calm Calm - N/A   Mostly Cloudy
2:11 AM 14.0 °F 8.2 °F 10.4 °F 86% 30.71 in 10.0 mi SSW 3.5 mph - N/A   Scattered Clouds
2:53 AM 12.0 °F - 9.0 °F 88% 30.72 in 10.0 mi Calm Calm - N/A   Clear
3:53 AM 12.0 °F - 9.0 °F 88% 30.71 in 10.0 mi Calm Calm - N/A   Clear
4:53 AM 10.9 °F - 7.0 °F 84% 30.71 in 10.0 mi Calm Calm - N/A   Clear
5:53 AM 19.0 °F 8.2 °F 17.1 °F 92% 30.71 in 10.0 mi East 9.2 mph - N/A   Partly Cloudy
6:01 AM 19.4 °F 10.4 °F 17.6 °F 93% 30.70 in 2.0 mi East 6.9 mph - N/A   Mostly Cloudy
6:08 AM 19.4 °F - 17.6 °F 93% 30.71 in 1.8 mi Calm Calm - N/A   Mostly Cloudy
6:12 AM 19.4 °F - 19.4 °F 100% 30.70 in 3.0 mi Calm Calm - N/A   Mostly Cloudy
6:23 AM 19.4 °F 10.4 °F 17.6 °F 93% 30.70 in 10.0 mi East 6.9 mph - N/A   Scattered Clouds
6:53 AM 19.9 °F 14.9 °F 18.0 °F 92% 30.69 in 10.0 mi SSE 3.5 mph - N/A   Clear
7:53 AM 16.0 °F 10.4 °F 12.9 °F 88% 30.70 in 10.0 mi East 3.5 mph - N/A   Clear
8:53 AM 18.0 °F - 14.0 °F 84% 30.69 in 10.0 mi Calm Calm - N/A   Clear
9:53 AM 19.0 °F 13.9 °F 15.1 °F 85% 30.68 in 10.0 mi East 3.5 mph - N/A   Clear
11:24 AM 21.2 °F 10.1 °F 17.6 °F 86% 30.67 in 10.0 mi ESE 10.4 mph - N/A   Clear
11:53 AM 21.9 °F 11.7 °F 19.0 °F 89% 30.69 in 10.0 mi SE 9.2 mph - N/A   Clear
12:42 PM 21.2 °F - 19.4 °F 93% 30.70 in 10.0 mi Calm Calm - N/A   Clear
12:53 PM 23.0 °F 15.8 °F 19.0 °F 85% 30.70 in 10.0 mi East 5.8 mph - N/A   Clear
1:25 PM 23.0 °F 13.1 °F 17.6 °F 80% 30.69 in 10.0 mi East 9.2 mph - N/A   Clear
1:53 PM 24.1 °F 16.0 °F 18.0 °F 77% 30.70 in 10.0 mi East 6.9 mph - N/A   Clear
2:53 PM 24.1 °F 18.2 °F 17.1 °F 75% 30.69 in 10.0 mi SE 4.6 mph - N/A   Clear
3:53 PM 27.0 °F - 16.0 °F 63% 30.69 in 10.0 mi Calm Calm - N/A   Clear
4:53 PM 28.9 °F 21.1 °F 16.0 °F 58% 30.68 in 10.0 mi ESE 8.1 mph - N/A   Clear
5:53 PM 28.0 °F 17.5 °F 16.0 °F 61% 30.65 in 10.0 mi ESE 12.7 mph - N/A   Clear
6:53 PM 27.0 °F 20.5 °F 15.1 °F 61% 30.67 in 10.0 mi SE 5.8 mph - N/A   Clear
7:53 PM 25.0 °F 17.1 °F 15.1 °F 66% 30.65 in 10.0 mi ESE 6.9 mph - N/A   Clear
8:53 PM 25.0 °F 14.8 °F 15.1 °F 66% 30.63 in 10.0 mi SE 10.4 mph - N/A   Clear
9:53 PM 24.1 °F 13.7 °F 15.1 °F 69% 30.63 in 10.0 mi SE 10.4 mph - N/A   Clear
10:53 PM 25.0 °F 15.5 °F 15.1 °F 66% 30.63 in 10.0 mi ESE 9.2 mph - N/A   Clear
11:53 PM 27.0 °F 23.0 °F 14.0 °F 58% 30.63 in 10.0 mi Variable 3.5 mph - N/A   Clear